Year,Month,Day,Hour,Minute,Value (Times are PST for temperature in C)
2019,03,21,00,00,8.60
2019,03,21,00,01,8.60
2019,03,21,00,02,8.60
2019,03,21,00,03,8.60
2019,03,21,00,04,8.60
2019,03,21,00,05,8.60
2019,03,21,00,06,8.60
2019,03,21,00,07,8.50
2019,03,21,00,08,8.50
2019,03,21,00,09,8.50
2019,03,21,00,10,8.40
2019,03,21,00,11,8.40
2019,03,21,00,12,8.40
2019,03,21,00,13,8.40
2019,03,21,00,14,8.40
2019,03,21,00,15,8.40
2019,03,21,00,16,8.40
2019,03,21,00,17,8.30
2019,03,21,00,18,8.30
2019,03,21,00,19,8.30
2019,03,21,00,20,8.30
2019,03,21,00,21,8.30
2019,03,21,00,22,8.30
2019,03,21,00,23,8.30
2019,03,21,00,24,8.30
2019,03,21,00,25,8.30
2019,03,21,00,26,8.30
2019,03,21,00,27,8.20
2019,03,21,00,28,8.20
2019,03,21,00,29,8.20
2019,03,21,00,30,8.20
2019,03,21,00,31,8.20
2019,03,21,00,32,8.20
2019,03,21,00,33,8.20
2019,03,21,00,34,8.20
2019,03,21,00,35,8.20
2019,03,21,00,36,8.20
2019,03,21,00,37,8.20
2019,03,21,00,38,8.20
2019,03,21,00,39,8.10
2019,03,21,00,40,8.10
2019,03,21,00,41,8.10
2019,03,21,00,42,8.10
2019,03,21,00,43,8.10
2019,03,21,00,44,8.10
2019,03,21,00,45,8.10
2019,03,21,00,46,8.10
2019,03,21,00,47,8.10
2019,03,21,00,48,8.00
2019,03,21,00,49,8.00
2019,03,21,00,50,8.00
2019,03,21,00,51,7.90
2019,03,21,00,52,7.90
2019,03,21,00,53,7.90
2019,03,21,00,54,7.90
2019,03,21,00,55,7.90
2019,03,21,00,56,7.90
2019,03,21,00,57,7.90
2019,03,21,00,58,7.90
2019,03,21,00,59,7.90
2019,03,21,01,00,7.90
2019,03,21,01,01,7.90
2019,03,21,01,02,7.90
2019,03,21,01,03,7.90
2019,03,21,01,04,7.80
2019,03,21,01,05,7.80
2019,03,21,01,06,7.80
2019,03,21,01,07,7.80
2019,03,21,01,08,7.70
2019,03,21,01,09,7.70
2019,03,21,01,10,7.70
2019,03,21,01,11,7.70
2019,03,21,01,12,7.70
2019,03,21,01,13,7.60
2019,03,21,01,14,7.60
2019,03,21,01,15,7.60
2019,03,21,01,16,7.60
2019,03,21,01,17,7.60
2019,03,21,01,18,7.60
2019,03,21,01,19,7.60
2019,03,21,01,20,7.60
2019,03,21,01,21,7.60
2019,03,21,01,22,7.50
2019,03,21,01,23,7.50
2019,03,21,01,24,7.50
2019,03,21,01,25,7.50
2019,03,21,01,26,7.40
2019,03,21,01,27,7.40
2019,03,21,01,28,7.40
2019,03,21,01,29,7.40
2019,03,21,01,30,7.30
2019,03,21,01,31,7.30
2019,03,21,01,32,7.30
2019,03,21,01,33,7.30
2019,03,21,01,34,7.20
2019,03,21,01,35,7.30
2019,03,21,01,36,7.30
2019,03,21,01,37,7.30
2019,03,21,01,38,7.30
2019,03,21,01,39,7.30
2019,03,21,01,40,7.30
2019,03,21,01,41,7.30
2019,03,21,01,42,7.30
2019,03,21,01,43,7.30
2019,03,21,01,44,7.30
2019,03,21,01,45,7.30
2019,03,21,01,46,7.30
2019,03,21,01,47,7.30
2019,03,21,01,48,7.30
2019,03,21,01,49,7.20
2019,03,21,01,50,7.20
2019,03,21,01,51,7.20
2019,03,21,01,52,7.20
2019,03,21,01,53,7.20
2019,03,21,01,54,7.10
2019,03,21,01,55,7.10
2019,03,21,01,56,7.10
2019,03,21,01,57,7.10
2019,03,21,01,58,7.10
2019,03,21,01,59,7.10
2019,03,21,02,00,7.00
2019,03,21,02,01,7.00
2019,03,21,02,02,6.90
2019,03,21,02,03,6.90
2019,03,21,02,04,6.90
2019,03,21,02,05,6.90
2019,03,21,02,06,6.90
2019,03,21,02,07,6.80
2019,03,21,02,08,6.80
2019,03,21,02,09,6.80
2019,03,21,02,10,6.80
2019,03,21,02,11,6.80
2019,03,21,02,12,6.70
2019,03,21,02,13,6.70
2019,03,21,02,14,6.70
2019,03,21,02,15,6.70
2019,03,21,02,16,6.70
2019,03,21,02,17,6.60
2019,03,21,02,18,6.60
2019,03,21,02,19,6.60
2019,03,21,02,20,6.60
2019,03,21,02,21,6.60
2019,03,21,02,22,6.60
2019,03,21,02,23,6.60
2019,03,21,02,24,6.60
2019,03,21,02,25,6.60
2019,03,21,02,26,6.60
2019,03,21,02,27,6.50
2019,03,21,02,28,6.50
2019,03,21,02,29,6.50
2019,03,21,02,30,6.50
2019,03,21,02,31,6.40
2019,03,21,02,32,6.40
2019,03,21,02,33,6.40
2019,03,21,02,34,6.40
2019,03,21,02,35,6.40
2019,03,21,02,36,6.40
2019,03,21,02,37,6.30
2019,03,21,02,38,6.30
2019,03,21,02,39,6.30
2019,03,21,02,40,6.30
2019,03,21,02,41,6.30
2019,03,21,02,42,6.20
2019,03,21,02,43,6.20
2019,03,21,02,44,6.20
2019,03,21,02,45,6.20
2019,03,21,02,46,6.20
2019,03,21,02,47,6.20
2019,03,21,02,48,6.10
2019,03,21,02,49,6.10
2019,03,21,02,50,6.10
2019,03,21,02,51,6.10
2019,03,21,02,52,6.00
2019,03,21,02,53,6.00
2019,03,21,02,54,6.00
2019,03,21,02,55,6.00
2019,03,21,02,56,5.90
2019,03,21,02,57,5.90
2019,03,21,02,58,5.90
2019,03,21,02,59,5.90
2019,03,21,03,00,5.90
2019,03,21,03,01,5.80
2019,03,21,03,02,5.80
2019,03,21,03,03,5.80
2019,03,21,03,04,5.80
2019,03,21,03,05,5.80
2019,03,21,03,06,5.80
2019,03,21,03,07,5.70
2019,03,21,03,08,5.70
2019,03,21,03,09,5.70
2019,03,21,03,10,5.60
2019,03,21,03,11,5.60
2019,03,21,03,12,5.60
2019,03,21,03,13,5.60
2019,03,21,03,14,5.60
2019,03,21,03,15,5.60
2019,03,21,03,16,5.60
2019,03,21,03,17,5.70
2019,03,21,03,18,5.70
2019,03,21,03,19,5.70
2019,03,21,03,20,5.70
2019,03,21,03,21,5.70
2019,03,21,03,22,5.70
2019,03,21,03,23,5.70
2019,03,21,03,24,5.70
2019,03,21,03,25,5.70
2019,03,21,03,26,5.70
2019,03,21,03,27,5.70
2019,03,21,03,28,5.70
2019,03,21,03,29,5.60
2019,03,21,03,30,5.60
2019,03,21,03,31,5.60
2019,03,21,03,32,5.60
2019,03,21,03,33,5.60
2019,03,21,03,34,5.60
2019,03,21,03,35,5.50
2019,03,21,03,36,5.50
2019,03,21,03,37,5.50
2019,03,21,03,38,5.50
2019,03,21,03,39,5.40
2019,03,21,03,40,5.40
2019,03,21,03,41,5.40
2019,03,21,03,42,5.40
2019,03,21,03,43,5.40
2019,03,21,03,44,5.40
2019,03,21,03,45,5.40
2019,03,21,03,46,5.30
2019,03,21,03,47,5.30
2019,03,21,03,48,5.30
2019,03,21,03,49,5.30
2019,03,21,03,50,5.30
2019,03,21,03,51,5.30
2019,03,21,03,52,5.30
2019,03,21,03,53,5.30
2019,03,21,03,54,5.30
2019,03,21,03,55,5.30
2019,03,21,03,56,5.20
2019,03,21,03,57,5.20
2019,03,21,03,58,5.20
2019,03,21,03,59,5.20
2019,03,21,04,00,5.20
2019,03,21,04,01,5.20
2019,03,21,04,02,5.20
2019,03,21,04,03,5.20
2019,03,21,04,04,5.20
2019,03,21,04,05,5.20
2019,03,21,04,06,5.20
2019,03,21,04,07,5.20
2019,03,21,04,08,5.20
2019,03,21,04,09,5.20
2019,03,21,04,10,5.20
2019,03,21,04,11,5.10
2019,03,21,04,12,5.10
2019,03,21,04,13,5.10
2019,03,21,04,14,5.10
2019,03,21,04,15,5.10
2019,03,21,04,16,5.10
2019,03,21,04,17,5.10
2019,03,21,04,18,5.00
2019,03,21,04,19,5.00
2019,03,21,04,20,5.00
2019,03,21,04,21,4.90
2019,03,21,04,22,4.90
2019,03,21,04,23,4.90
2019,03,21,04,24,4.90
2019,03,21,04,25,4.80
2019,03,21,04,26,4.90
2019,03,21,04,27,4.90
2019,03,21,04,28,4.90
2019,03,21,04,29,4.90
2019,03,21,04,30,4.90
2019,03,21,04,31,4.90
2019,03,21,04,32,5.00
2019,03,21,04,33,5.00
2019,03,21,04,34,5.00
2019,03,21,04,35,5.10
2019,03,21,04,36,5.10
2019,03,21,04,37,5.10
2019,03,21,04,38,5.10
2019,03,21,04,39,5.10
2019,03,21,04,40,5.10
2019,03,21,04,41,5.10
2019,03,21,04,42,5.10
2019,03,21,04,43,5.10
2019,03,21,04,44,5.10
2019,03,21,04,45,5.10
2019,03,21,04,46,5.10
2019,03,21,04,47,5.10
2019,03,21,04,48,5.10
2019,03,21,04,49,5.10
2019,03,21,04,50,5.10
2019,03,21,04,51,5.10
2019,03,21,04,52,5.10
2019,03,21,04,53,5.10
2019,03,21,04,54,5.10
2019,03,21,04,55,5.10
2019,03,21,04,56,5.10
2019,03,21,04,57,5.10
2019,03,21,04,58,5.00
2019,03,21,04,59,5.00
2019,03,21,05,00,5.00
2019,03,21,05,01,5.00
2019,03,21,05,02,4.90
2019,03,21,05,03,4.90
2019,03,21,05,04,4.90
2019,03,21,05,05,4.90
2019,03,21,05,06,4.90
2019,03,21,05,07,4.90
2019,03,21,05,08,4.90
2019,03,21,05,09,4.90
2019,03,21,05,10,4.80
2019,03,21,05,11,4.80
2019,03,21,05,12,4.80
2019,03,21,05,13,4.80
2019,03,21,05,14,4.80
2019,03,21,05,15,4.80
2019,03,21,05,16,4.80
2019,03,21,05,17,4.80
2019,03,21,05,18,4.80
2019,03,21,05,19,4.70
2019,03,21,05,20,4.70
2019,03,21,05,21,4.70
2019,03,21,05,22,4.70
2019,03,21,05,23,4.70
2019,03,21,05,24,4.70
2019,03,21,05,25,4.70
2019,03,21,05,26,4.70
2019,03,21,05,27,4.70
2019,03,21,05,28,4.70
2019,03,21,05,29,4.70
2019,03,21,05,30,4.60
2019,03,21,05,31,4.60
2019,03,21,05,32,4.60
2019,03,21,05,33,4.60
2019,03,21,05,34,4.60
2019,03,21,05,35,4.60
2019,03,21,05,36,4.60
2019,03,21,05,37,4.60
2019,03,21,05,38,4.60
2019,03,21,05,39,4.60
2019,03,21,05,40,4.60
2019,03,21,05,41,4.60
2019,03,21,05,42,4.60
2019,03,21,05,43,4.60
2019,03,21,05,44,4.50
2019,03,21,05,45,4.60
2019,03,21,05,46,4.50
2019,03,21,05,47,4.50
2019,03,21,05,48,4.50
2019,03,21,05,49,4.50
2019,03,21,05,50,4.50
2019,03,21,05,51,4.50
2019,03,21,05,52,4.50
2019,03,21,05,53,4.50
2019,03,21,05,54,4.50
2019,03,21,05,55,4.50
2019,03,21,05,56,4.40
2019,03,21,05,57,4.40
2019,03,21,05,58,4.40
2019,03,21,05,59,4.40
2019,03,21,06,00,4.40
2019,03,21,06,01,4.40
2019,03,21,06,02,4.40
2019,03,21,06,03,4.40
2019,03,21,06,04,4.40
2019,03,21,06,05,4.40
2019,03,21,06,06,4.40
2019,03,21,06,07,4.40
2019,03,21,06,08,4.40
2019,03,21,06,09,4.40
2019,03,21,06,10,4.40
2019,03,21,06,11,4.40
2019,03,21,06,12,4.40
2019,03,21,06,13,4.40
2019,03,21,06,14,4.40
2019,03,21,06,15,4.40
2019,03,21,06,16,4.40
2019,03,21,06,17,4.40
2019,03,21,06,18,4.40
2019,03,21,06,19,4.40
2019,03,21,06,20,4.40
2019,03,21,06,21,4.40
2019,03,21,06,22,4.30
2019,03,21,06,23,4.30
2019,03,21,06,24,4.30
2019,03,21,06,25,4.30
2019,03,21,06,26,4.30
2019,03,21,06,27,4.30
2019,03,21,06,28,4.20
2019,03,21,06,29,4.20
2019,03,21,06,30,4.20
2019,03,21,06,31,4.20
2019,03,21,06,32,4.20
2019,03,21,06,33,4.20
2019,03,21,06,34,4.20
2019,03,21,06,35,4.30
2019,03,21,06,36,4.30
2019,03,21,06,37,4.30
2019,03,21,06,38,4.30
2019,03,21,06,39,4.30
2019,03,21,06,40,4.30
2019,03,21,06,41,4.30
2019,03,21,06,42,4.30
2019,03,21,06,43,4.30
2019,03,21,06,44,4.30
2019,03,21,06,45,4.30
2019,03,21,06,46,4.20
2019,03,21,06,47,4.20
2019,03,21,06,48,4.30
2019,03,21,06,49,4.30
2019,03,21,06,50,4.30
2019,03,21,06,51,4.20
2019,03,21,06,52,4.20
2019,03,21,06,53,4.20
2019,03,21,06,54,4.20
2019,03,21,06,55,4.20
2019,03,21,06,56,4.20
2019,03,21,06,57,4.10
2019,03,21,06,58,4.20
2019,03,21,06,59,4.10
2019,03,21,07,00,4.10
2019,03,21,07,01,4.10
2019,03,21,07,02,4.10
2019,03,21,07,03,4.00
2019,03,21,07,04,4.00
2019,03,21,07,05,4.00
2019,03,21,07,06,4.00
2019,03,21,07,07,4.00
2019,03,21,07,08,4.00
2019,03,21,07,09,4.00
2019,03,21,07,10,4.00
2019,03,21,07,11,4.00
2019,03,21,07,12,4.00
2019,03,21,07,13,4.00
2019,03,21,07,14,4.00
2019,03,21,07,15,4.00
2019,03,21,07,16,4.00
2019,03,21,07,17,4.00
2019,03,21,07,18,4.00
2019,03,21,07,19,4.00
2019,03,21,07,20,4.00
2019,03,21,07,21,4.00
2019,03,21,07,22,4.00
2019,03,21,07,23,4.00
2019,03,21,07,24,4.00
2019,03,21,07,25,4.00
2019,03,21,07,26,3.90
2019,03,21,07,27,3.90
2019,03,21,07,28,3.90
2019,03,21,07,29,3.90
2019,03,21,07,30,3.90
2019,03,21,07,31,3.90
2019,03,21,07,32,3.90
2019,03,21,07,33,3.90
2019,03,21,07,34,3.90
2019,03,21,07,35,3.90
2019,03,21,07,36,3.90
2019,03,21,07,37,3.90
2019,03,21,07,38,3.90
2019,03,21,07,39,3.90
2019,03,21,07,40,3.90
2019,03,21,07,41,3.90
2019,03,21,07,42,3.90
2019,03,21,07,43,3.90
2019,03,21,07,44,3.90
2019,03,21,07,45,3.90
2019,03,21,07,46,3.90
2019,03,21,07,47,3.80
2019,03,21,07,48,3.80
2019,03,21,07,49,3.80
2019,03,21,07,50,3.90
2019,03,21,07,51,3.90
2019,03,21,07,52,3.90
2019,03,21,07,53,3.90
2019,03,21,07,54,4.00
2019,03,21,07,55,4.10
2019,03,21,07,56,4.10
2019,03,21,07,57,4.20
2019,03,21,07,58,4.20
2019,03,21,07,59,4.20
2019,03,21,08,00,4.30
2019,03,21,08,01,4.30
2019,03,21,08,02,4.30
2019,03,21,08,03,4.40
2019,03,21,08,04,4.40
2019,03,21,08,05,4.40
2019,03,21,08,06,4.40
2019,03,21,08,07,4.50
2019,03,21,08,08,4.50
2019,03,21,08,09,4.60
2019,03,21,08,10,4.60
2019,03,21,08,11,4.70
2019,03,21,08,12,4.70
2019,03,21,08,13,4.80
2019,03,21,08,14,4.80
2019,03,21,08,15,4.90
2019,03,21,08,16,4.90
2019,03,21,08,17,4.90
2019,03,21,08,18,5.00
2019,03,21,08,19,5.10
2019,03,21,08,20,5.10
2019,03,21,08,21,5.20
2019,03,21,08,22,5.20
2019,03,21,08,23,5.30
2019,03,21,08,24,5.40
2019,03,21,08,25,5.40
2019,03,21,08,26,5.60
2019,03,21,08,27,5.60
2019,03,21,08,28,5.70
2019,03,21,08,29,5.80
2019,03,21,08,30,5.90
2019,03,21,08,31,5.90
2019,03,21,08,32,6.10
2019,03,21,08,33,6.30
2019,03,21,08,34,6.40
2019,03,21,08,35,6.50
2019,03,21,08,36,6.70
2019,03,21,08,37,6.70
2019,03,21,08,38,6.80
2019,03,21,08,39,6.90
2019,03,21,08,40,7.00
2019,03,21,08,41,7.10
2019,03,21,08,42,7.20
2019,03,21,08,43,7.30
2019,03,21,08,44,7.50
2019,03,21,08,45,7.60
2019,03,21,08,46,7.80
2019,03,21,08,47,7.90
2019,03,21,08,48,8.10
2019,03,21,08,49,8.20
2019,03,21,08,50,8.30
2019,03,21,08,51,8.40
2019,03,21,08,52,8.50
2019,03,21,08,53,8.60
2019,03,21,08,54,8.70
2019,03,21,08,55,8.80
2019,03,21,08,56,8.90
2019,03,21,08,57,9.00
2019,03,21,08,58,9.10
2019,03,21,08,59,9.20
2019,03,21,09,00,9.40
2019,03,21,09,01,9.50
2019,03,21,09,02,9.60
2019,03,21,09,03,9.60
2019,03,21,09,04,9.70
2019,03,21,09,05,9.80
2019,03,21,09,06,9.80
2019,03,21,09,07,9.90
2019,03,21,09,08,9.90
2019,03,21,09,09,10.00
2019,03,21,09,10,10.10
2019,03,21,09,11,10.20
2019,03,21,09,12,10.30
2019,03,21,09,13,10.40
2019,03,21,09,14,10.50
2019,03,21,09,15,10.60
2019,03,21,09,16,10.60
2019,03,21,09,17,10.70
2019,03,21,09,18,10.70
2019,03,21,09,19,10.80
2019,03,21,09,20,10.80
2019,03,21,09,21,10.90
2019,03,21,09,22,10.80
2019,03,21,09,23,10.80
2019,03,21,09,24,10.80
2019,03,21,09,25,10.90
2019,03,21,09,26,10.90
2019,03,21,09,27,11.00
2019,03,21,09,28,11.00
2019,03,21,09,29,11.10
2019,03,21,09,30,11.30
2019,03,21,09,31,11.40
2019,03,21,09,32,11.50
2019,03,21,09,33,11.60
2019,03,21,09,34,11.70
2019,03,21,09,35,11.80
2019,03,21,09,36,11.90
2019,03,21,09,37,12.00
2019,03,21,09,38,12.00
2019,03,21,09,39,12.10
2019,03,21,09,40,12.20
2019,03,21,09,41,12.20
2019,03,21,09,42,12.30
2019,03,21,09,43,12.30
2019,03,21,09,44,12.40
2019,03,21,09,45,12.50
2019,03,21,09,46,12.60
2019,03,21,09,47,12.70
2019,03,21,09,48,12.80
2019,03,21,09,49,12.90
2019,03,21,09,50,13.00
2019,03,21,09,51,13.00
2019,03,21,09,52,13.10
2019,03,21,09,53,13.20
2019,03,21,09,54,13.30
2019,03,21,09,55,13.30
2019,03,21,09,56,13.40
2019,03,21,09,57,13.40
2019,03,21,09,58,13.40
2019,03,21,09,59,13.40
2019,03,21,10,00,13.50
2019,03,21,10,01,13.50
2019,03,21,10,02,13.50
2019,03,21,10,03,13.60
2019,03,21,10,04,13.50
2019,03,21,10,05,13.50
2019,03,21,10,06,13.40
2019,03,21,10,07,13.40
2019,03,21,10,08,13.40
2019,03,21,10,09,13.40
2019,03,21,10,10,13.40
2019,03,21,10,11,13.40
2019,03,21,10,12,13.30
2019,03,21,10,13,13.30
2019,03,21,10,14,13.40
2019,03,21,10,15,13.40
2019,03,21,10,16,13.50
2019,03,21,10,17,13.60
2019,03,21,10,18,13.70
2019,03,21,10,19,13.80
2019,03,21,10,20,13.90
2019,03,21,10,21,13.90
2019,03,21,10,22,13.90
2019,03,21,10,23,13.80
2019,03,21,10,24,13.70
2019,03,21,10,25,13.70
2019,03,21,10,26,13.60
2019,03,21,10,27,13.60
2019,03,21,10,28,13.60
2019,03,21,10,29,13.70
2019,03,21,10,30,13.80
2019,03,21,10,31,13.80
2019,03,21,10,32,13.80
2019,03,21,10,33,13.90
2019,03,21,10,34,13.90
2019,03,21,10,35,13.90
2019,03,21,10,36,13.90
2019,03,21,10,37,13.90
2019,03,21,10,38,13.90
2019,03,21,10,39,13.90
2019,03,21,10,40,13.90
2019,03,21,10,41,13.90
2019,03,21,10,42,13.80
2019,03,21,10,43,13.70
2019,03,21,10,44,13.70
2019,03,21,10,45,13.70
2019,03,21,10,46,13.70
2019,03,21,10,47,13.80
2019,03,21,10,48,13.90
2019,03,21,10,49,14.10
2019,03,21,10,50,14.20
2019,03,21,10,51,14.20
2019,03,21,10,52,14.20
2019,03,21,10,53,14.20
2019,03,21,10,54,14.10
2019,03,21,10,55,14.10
2019,03,21,10,56,14.10
2019,03,21,10,57,14.10
2019,03,21,10,58,14.20
2019,03,21,10,59,14.30
2019,03,21,11,00,14.40
2019,03,21,11,01,14.20
2019,03,21,11,02,14.10
2019,03,21,11,03,13.90
2019,03,21,11,04,13.80
2019,03,21,11,05,13.70
2019,03,21,11,06,13.60
2019,03,21,11,07,13.60
2019,03,21,11,08,13.60
2019,03,21,11,09,13.70
2019,03,21,11,10,13.70
2019,03,21,11,11,13.80
2019,03,21,11,12,13.80
2019,03,21,11,13,13.90
2019,03,21,11,14,14.00
2019,03,21,11,15,14.10
2019,03,21,11,16,14.20
2019,03,21,11,17,14.30
2019,03,21,11,18,14.50
2019,03,21,11,19,14.70
2019,03,21,11,20,14.80
2019,03,21,11,21,14.80
2019,03,21,11,22,14.80
2019,03,21,11,23,14.70
2019,03,21,11,24,14.80
2019,03,21,11,25,14.90
2019,03,21,11,26,15.00
2019,03,21,11,27,15.20
2019,03,21,11,28,15.30
2019,03,21,11,29,15.40
2019,03,21,11,30,15.40
2019,03,21,11,31,15.50
2019,03,21,11,32,15.40
2019,03,21,11,33,15.20
2019,03,21,11,34,15.20
2019,03,21,11,35,15.30
2019,03,21,11,36,15.30
2019,03,21,11,37,15.30
2019,03,21,11,38,15.30
2019,03,21,11,39,15.40
2019,03,21,11,40,15.60
2019,03,21,11,41,15.60
2019,03,21,11,42,15.70
2019,03,21,11,43,15.90
2019,03,21,11,44,16.00
2019,03,21,11,45,16.10
2019,03,21,11,46,16.10
2019,03,21,11,47,16.10
2019,03,21,11,48,16.10
2019,03,21,11,49,16.10
2019,03,21,11,50,16.20
2019,03,21,11,51,16.30
2019,03,21,11,52,16.40
2019,03,21,11,53,16.40
2019,03,21,11,54,16.30
2019,03,21,11,55,16.20
2019,03,21,11,56,16.20
2019,03,21,11,57,16.20
2019,03,21,11,58,16.30
2019,03,21,11,59,16.40
2019,03,21,12,00,16.50
2019,03,21,12,01,16.50
2019,03,21,12,02,16.40
2019,03,21,12,03,16.50
2019,03,21,12,04,16.60
2019,03,21,12,05,16.70
2019,03,21,12,06,16.80
2019,03,21,12,07,16.90
2019,03,21,12,08,17.00
2019,03,21,12,09,17.20
2019,03,21,12,10,17.30
2019,03,21,12,11,17.20
2019,03,21,12,12,17.20
2019,03,21,12,13,17.30
2019,03,21,12,14,17.30
2019,03,21,12,15,17.40
2019,03,21,12,16,17.50
2019,03,21,12,17,17.50
2019,03,21,12,18,17.50
2019,03,21,12,19,17.60
2019,03,21,12,20,17.60
2019,03,21,12,21,17.60
2019,03,21,12,22,17.70
2019,03,21,12,23,17.70
2019,03,21,12,24,17.70
2019,03,21,12,25,17.50
2019,03,21,12,26,17.40
2019,03,21,12,27,17.40
2019,03,21,12,28,17.30
2019,03,21,12,29,17.30
2019,03,21,12,30,17.30
2019,03,21,12,31,17.30
2019,03,21,12,32,17.40
2019,03,21,12,33,17.40
2019,03,21,12,34,17.30
2019,03,21,12,35,17.40
2019,03,21,12,36,17.50
2019,03,21,12,37,17.60
2019,03,21,12,38,17.60
2019,03,21,12,39,17.60
2019,03,21,12,40,17.60
2019,03,21,12,41,17.70
2019,03,21,12,42,17.80
2019,03,21,12,43,17.80
2019,03,21,12,44,17.60
2019,03,21,12,45,17.40
2019,03,21,12,46,17.20
2019,03,21,12,47,17.00
2019,03,21,12,48,17.00
2019,03,21,12,49,17.10
2019,03,21,12,50,17.00
2019,03,21,12,51,17.00
2019,03,21,12,52,17.00
2019,03,21,12,53,17.10
2019,03,21,12,54,17.20
2019,03,21,12,55,17.20
2019,03,21,12,56,17.30
2019,03,21,12,57,17.30
2019,03,21,12,58,17.40
2019,03,21,12,59,17.50
2019,03,21,13,00,17.70
2019,03,21,13,01,17.80
2019,03,21,13,02,17.80
2019,03,21,13,03,17.80
2019,03,21,13,04,17.90
2019,03,21,13,05,17.80
2019,03,21,13,06,17.70
2019,03,21,13,07,17.70
2019,03,21,13,08,17.60
2019,03,21,13,09,17.50
2019,03,21,13,10,17.50
2019,03,21,13,11,17.40
2019,03,21,13,12,17.40
2019,03,21,13,13,17.30
2019,03,21,13,14,17.50
2019,03,21,13,15,17.50
2019,03,21,13,16,17.60
2019,03,21,13,17,17.50
2019,03,21,13,18,17.50
2019,03,21,13,19,17.50
2019,03,21,13,20,17.40
2019,03,21,13,21,17.30
2019,03,21,13,22,17.30
2019,03,21,13,23,17.20
2019,03,21,13,24,17.20
2019,03,21,13,25,17.20
2019,03,21,13,26,17.30
2019,03,21,13,27,17.30
2019,03,21,13,28,17.30
2019,03,21,13,29,17.30
2019,03,21,13,30,17.20
2019,03,21,13,31,17.20
2019,03,21,13,32,17.20
2019,03,21,13,33,17.10
2019,03,21,13,34,17.10
2019,03,21,13,35,17.00
2019,03,21,13,36,17.00
2019,03,21,13,37,17.00
2019,03,21,13,38,17.10
2019,03,21,13,39,17.00
2019,03,21,13,40,16.90
2019,03,21,13,41,16.90
2019,03,21,13,42,16.90
2019,03,21,13,43,17.00
2019,03,21,13,44,17.10
2019,03,21,13,45,17.20
2019,03,21,13,46,17.30
2019,03,21,13,47,17.40
2019,03,21,13,48,17.40
2019,03,21,13,49,17.20
2019,03,21,13,50,17.10
2019,03,21,13,51,17.10
2019,03,21,13,52,17.00
2019,03,21,13,53,17.00
2019,03,21,13,54,17.10
2019,03,21,13,55,17.20
2019,03,21,13,56,17.40
2019,03,21,13,57,17.50
2019,03,21,13,58,17.50
2019,03,21,13,59,17.40
2019,03,21,14,00,17.40
2019,03,21,14,01,17.30
2019,03,21,14,02,17.40
2019,03,21,14,03,17.50
2019,03,21,14,04,17.50
2019,03,21,14,05,17.50
2019,03,21,14,06,17.50
2019,03,21,14,07,17.50
2019,03,21,14,08,17.60
2019,03,21,14,09,17.60
2019,03,21,14,10,17.50
2019,03,21,14,11,17.60
2019,03,21,14,12,17.70
2019,03,21,14,13,17.80
2019,03,21,14,14,17.90
2019,03,21,14,15,18.00
2019,03,21,14,16,18.00
2019,03,21,14,17,18.00
2019,03,21,14,18,17.90
2019,03,21,14,19,17.80
2019,03,21,14,20,17.90
2019,03,21,14,21,17.90
2019,03,21,14,22,17.90
2019,03,21,14,23,17.90
2019,03,21,14,24,17.80
2019,03,21,14,25,17.80
2019,03,21,14,26,17.90
2019,03,21,14,27,18.00
2019,03,21,14,28,18.10
2019,03,21,14,29,18.10
2019,03,21,14,30,18.10
2019,03,21,14,31,18.20
2019,03,21,14,32,18.30
2019,03,21,14,33,18.40
2019,03,21,14,34,18.30
2019,03,21,14,35,18.30
2019,03,21,14,36,18.30
2019,03,21,14,37,18.40
2019,03,21,14,38,18.40
2019,03,21,14,39,18.40
2019,03,21,14,40,18.50
2019,03,21,14,41,18.50
2019,03,21,14,42,18.50
2019,03,21,14,43,18.50
2019,03,21,14,44,18.60
2019,03,21,14,45,18.60
2019,03,21,14,46,18.50
2019,03,21,14,47,18.40
2019,03,21,14,48,18.40
2019,03,21,14,49,18.40
2019,03,21,14,50,18.40
2019,03,21,14,51,18.40
2019,03,21,14,52,18.40
2019,03,21,14,53,18.40
2019,03,21,14,54,18.30
2019,03,21,14,55,18.30
2019,03,21,14,56,18.20
2019,03,21,14,57,18.30
2019,03,21,14,58,18.40
2019,03,21,14,59,18.40
2019,03,21,15,00,18.40
2019,03,21,15,01,18.40
2019,03,21,15,02,18.40
2019,03,21,15,03,18.20
2019,03,21,15,04,18.00
2019,03,21,15,05,17.90
2019,03,21,15,06,17.90
2019,03,21,15,07,18.00
2019,03,21,15,08,18.10
2019,03,21,15,09,18.10
2019,03,21,15,10,18.10
2019,03,21,15,11,18.00
2019,03,21,15,12,18.00
2019,03,21,15,13,18.00
2019,03,21,15,14,18.00
2019,03,21,15,15,17.90
2019,03,21,15,16,17.90
2019,03,21,15,17,17.80
2019,03,21,15,18,17.60
2019,03,21,15,19,17.60
2019,03,21,15,20,17.60
2019,03,21,15,21,17.60
2019,03,21,15,22,17.70
2019,03,21,15,23,17.80
2019,03,21,15,24,17.90
2019,03,21,15,25,18.00
2019,03,21,15,26,17.90
2019,03,21,15,27,17.90
2019,03,21,15,28,17.90
2019,03,21,15,29,17.80
2019,03,21,15,30,17.90
2019,03,21,15,31,17.90
2019,03,21,15,32,17.90
2019,03,21,15,33,18.00
2019,03,21,15,34,18.00
2019,03,21,15,35,18.10
2019,03,21,15,36,18.00
2019,03,21,15,37,18.00
2019,03,21,15,38,18.00
2019,03,21,15,39,18.10
2019,03,21,15,40,18.10
2019,03,21,15,41,18.10
2019,03,21,15,42,18.00
2019,03,21,15,43,17.90
2019,03,21,15,44,17.90
2019,03,21,15,45,17.80
2019,03,21,15,46,17.80
2019,03,21,15,47,17.80
2019,03,21,15,48,17.90
2019,03,21,15,49,18.00
2019,03,21,15,50,18.10
2019,03,21,15,51,18.10
2019,03,21,15,52,18.10
2019,03,21,15,53,18.10
2019,03,21,15,54,18.00
2019,03,21,15,55,18.00
2019,03,21,15,56,18.00
2019,03,21,15,57,18.00
2019,03,21,15,58,18.00
2019,03,21,15,59,17.90
2019,03,21,16,00,18.00
2019,03,21,16,01,18.10
2019,03,21,16,02,18.20
2019,03,21,16,03,18.20
2019,03,21,16,04,18.30
2019,03,21,16,05,18.40
2019,03,21,16,06,18.30
2019,03,21,16,07,18.20
2019,03,21,16,08,18.20
2019,03,21,16,09,18.30
2019,03,21,16,10,18.30
2019,03,21,16,11,18.30
2019,03,21,16,12,18.20
2019,03,21,16,13,18.10
2019,03,21,16,14,18.10
2019,03,21,16,15,18.10
2019,03,21,16,16,18.10
2019,03,21,16,17,18.10
2019,03,21,16,18,18.20
2019,03,21,16,19,18.10
2019,03,21,16,20,18.10
2019,03,21,16,21,18.20
2019,03,21,16,22,18.20
2019,03,21,16,23,18.20
2019,03,21,16,24,18.10
2019,03,21,16,25,18.00
2019,03,21,16,26,17.90
2019,03,21,16,27,17.90
2019,03,21,16,28,17.90
2019,03,21,16,29,17.90
2019,03,21,16,30,17.90
2019,03,21,16,31,17.90
2019,03,21,16,32,17.90
2019,03,21,16,33,18.00
2019,03,21,16,34,18.00
2019,03,21,16,35,18.00
2019,03,21,16,36,17.90
2019,03,21,16,37,17.90
2019,03,21,16,38,17.90
2019,03,21,16,39,17.90
2019,03,21,16,40,18.00
2019,03,21,16,41,18.00
2019,03,21,16,42,18.10
2019,03,21,16,43,18.10
2019,03,21,16,44,18.00
2019,03,21,16,45,18.00
2019,03,21,16,46,17.90
2019,03,21,16,47,17.90
2019,03,21,16,48,17.80
2019,03,21,16,49,17.70
2019,03,21,16,50,17.60
2019,03,21,16,51,17.50
2019,03,21,16,52,17.40
2019,03,21,16,53,17.30
2019,03,21,16,54,17.30
2019,03,21,16,55,17.30
2019,03,21,16,56,17.30
2019,03,21,16,57,17.20
2019,03,21,16,58,17.20
2019,03,21,16,59,17.10
2019,03,21,17,00,17.10
2019,03,21,17,01,17.10
2019,03,21,17,02,17.00
2019,03,21,17,03,17.00
2019,03,21,17,04,17.00
2019,03,21,17,05,17.00
2019,03,21,17,06,17.00
2019,03,21,17,07,17.00
2019,03,21,17,08,17.00
2019,03,21,17,09,17.00
2019,03,21,17,10,16.90
2019,03,21,17,11,16.90
2019,03,21,17,12,16.80
2019,03,21,17,13,16.80
2019,03,21,17,14,16.90
2019,03,21,17,15,17.00
2019,03,21,17,16,17.00
2019,03,21,17,17,17.00
2019,03,21,17,18,17.00
2019,03,21,17,19,17.00
2019,03,21,17,20,16.90
2019,03,21,17,21,16.90
2019,03,21,17,22,16.90
2019,03,21,17,23,16.90
2019,03,21,17,24,16.90
2019,03,21,17,25,16.90
2019,03,21,17,26,16.80
2019,03,21,17,27,16.80
2019,03,21,17,28,16.80
2019,03,21,17,29,16.80
2019,03,21,17,30,16.80
2019,03,21,17,31,16.80
2019,03,21,17,32,16.80
2019,03,21,17,33,16.70
2019,03,21,17,34,16.70
2019,03,21,17,35,16.80
2019,03,21,17,36,16.80
2019,03,21,17,37,16.80
2019,03,21,17,38,16.70
2019,03,21,17,39,16.70
2019,03,21,17,40,16.60
2019,03,21,17,41,16.60
2019,03,21,17,42,16.60
2019,03,21,17,43,16.50